Flag Weather past 2 weeks in Kakata, Liberia

Now
86 °F

Partly sunny.


Feels Like: 97 °F
Forecast: 72 / 86 °F
Wind: 8 mph from Southwest

Location: Roberts Field

Current Time: Oct 30, 2014 at 12:34:15 PM

Latest Report: Oct 30, 2014 at 12:00 PM


Visibility: N/A

Pressure: 29.89 "Hg

Humidity: 75%

Dew point: 77 °F

Location of KakataLocation

Historic Weather in Kakata — Graph

°F

Kakata temperature yesterday

Maximum temperature yesterday: 86 °F (at 12:00 PM)
Minimum temperature yesterday: 77 °F (at 11:00 PM)
Average temperature yesterday: 83 °F

Past Weeks' High & Low Weather Summary

 TemperatureHumidityPressure
High90 °F (Oct 17, 1:30 PM)100% (Oct 17, 4:00 AM)29.98 "Hg (Oct 17, 4:00 AM)
Low73 °F (Oct 17, 7:00 AM)63% (Oct 17, 2:00 PM)29.80 "Hg (Oct 19, 3:30 PM)
Average80 °F87%29.90 "Hg
* Reported Oct 15 11:00 AM — Oct 30 11:30 AM, Kakata, Weather by CustomWeather, © 2014

Note: Actual official high and low records may vary slightly from our data, if they occured in-between our weather recording intervals... More about our weather records

Advertising

Kakata weather history for previous 24 hours

 ConditionsComfort  
Time TempWeatherWind HumidityBarometerVisibility
11:30 AM
Oct 30
84 °FPartly sunny.6 mph74%29.92 "HgN/A
11:00 AM84 °FPartly sunny.3 mph79%29.92 "HgN/A
10:30 AM82 °FPartly sunny.3 mph84%29.92 "HgN/A
10:00 AM81 °FPartly sunny.No wind89%29.92 "HgN/A
9:30 AM81 °FThunderstorms. Partly sunny.5 mph89%29.92 "HgN/A
9:00 AM81 °FThunderstorms. Partly sunny.3 mph89%29.92 "HgN/A
8:30 AM79 °FThunderstorms. Partly sunny.3 mph94%29.92 "HgN/A
8:00 AM77 °FThunderstorms. Partly sunny.No wind94%29.89 "HgN/A
7:30 AM77 °FThunderstorms. Partly sunny.3 mph94%29.89 "Hg6 mi
7:00 AM77 °FPassing clouds.3 mph94%29.89 "Hg5 mi
6:30 AM77 °FPassing clouds.5 mph94%29.89 "Hg5 mi
6:00 AM77 °FPassing clouds.3 mph94%29.86 "HgN/A
4:00 AM77 °FPassing clouds.No wind94%29.83 "HgN/A
3:30 AM77 °FPassing clouds.No wind94%29.83 "HgN/A
2:00 AM77 °FPassing clouds.No wind94%29.86 "HgN/A
1:30 AM77 °FLight rain. Passing clouds.No wind94%29.86 "Hg5 mi
1:00 AM77 °FPassing clouds.No wind94%29.86 "HgN/A
12:30 AM77 °FPassing clouds.No wind94%29.86 "HgN/A
12:00 AM77 °FPassing clouds.8 mph94%29.89 "HgN/A
11:30 PM
Oct 29
77 °FPassing clouds.3 mph94%29.89 "HgN/A
11:00 PM77 °FPassing clouds.3 mph94%29.89 "HgN/A
8:00 PM81 °FPassing clouds.6 mph84%29.83 "HgN/A
2:30 PM86 °FScattered clouds.9 mph75%29.80 "HgN/A
2:00 PM86 °FPartly sunny.13 mph75%29.80 "HgN/A
1:30 PM84 °FPartly sunny.14 mph79%29.83 "HgN/A
1:00 PM86 °FPartly sunny.13 mph75%29.83 "HgN/A
12:30 PM84 °FPartly sunny.10 mph79%29.86 "HgN/A
12:00 PM86 °FPartly sunny.6 mph79%29.86 "HgN/A
Weather by CustomWeather, © 2014

See weather overviewHow to use our weather pages